Time,TemperatureF,DewpointF,PressureIn,WindDirection,WindDirectionDegrees,WindSpeedMPH,WindSpeedGustMPH,Humidity,HourlyPrecipIn,Conditions,Clouds,dailyrainin,SolarRadiationWatts/m^2,SoftwareType,DateUTC
2013-05-31 00:01:00,50.0,35.0,-100.00,SSE,149,6.0,8.0,56,0.00,,,-99.99,0.000000,,2013-05-31 06:01:00,
2013-05-31 00:11:00,51.0,35.0,-100.00,SSE,150,6.0,8.0,53,0.00,,,-99.99,0.000000,,2013-05-31 06:11:00,
2013-05-31 00:21:00,50.0,35.0,-100.00,SSE,150,7.0,8.0,56,0.00,,,-99.99,0.000000,,2013-05-31 06:21:00,
2013-05-31 00:31:00,50.0,34.0,-100.00,SSE,151,7.0,8.0,53,0.00,,,-99.99,0.000000,,2013-05-31 06:31:00,
2013-05-31 00:41:00,50.0,34.0,-100.00,SSE,159,6.0,8.0,53,0.00,,,-99.99,0.000000,,2013-05-31 06:41:00,
2013-05-31 00:50:00,49.0,35.0,-100.00,SSE,156,6.0,7.0,57,0.00,,,-99.99,0.000000,,2013-05-31 06:50:00,
2013-05-31 00:51:00,50.0,35.0,-100.00,SSE,160,5.0,7.0,56,0.00,,,-99.99,0.000000,,2013-05-31 06:51:00,
2013-05-31 01:01:00,50.0,35.0,-100.00,South,173,4.0,7.0,56,0.00,,,-99.99,0.000000,,2013-05-31 07:01:00,
2013-05-31 01:11:00,49.0,35.0,-100.00,SSE,156,6.0,7.0,57,0.00,,,-99.99,0.000000,,2013-05-31 07:11:00,
2013-05-31 01:21:00,49.0,35.0,-100.00,SSE,156,6.0,7.0,57,0.00,,,-99.99,0.000000,,2013-05-31 07:21:00,
2013-05-31 01:32:00,49.0,35.0,-100.00,SSE,156,6.0,7.0,57,0.00,,,-99.99,0.000000,,2013-05-31 07:32:00,
2013-05-31 01:41:00,49.0,35.0,-100.00,SSE,156,6.0,7.0,57,0.00,,,-99.99,0.000000,,2013-05-31 07:41:00,
2013-05-31 02:22:00,47.0,34.0,-100.00,South,172,6.0,7.0,60,0.00,,,-99.99,0.000000,,2013-05-31 08:22:00,
2013-05-31 02:32:00,48.0,34.0,-100.00,South,170,6.0,8.0,58,0.00,,,-99.99,0.000000,,2013-05-31 08:32:00,
2013-05-31 02:42:00,48.0,34.0,-100.00,SSE,163,6.0,7.0,58,0.00,,,-99.99,0.000000,,2013-05-31 08:42:00,
2013-05-31 02:52:00,49.0,34.0,-100.00,SSE,164,7.0,8.0,57,0.00,,,-99.99,0.000000,,2013-05-31 08:52:00,
2013-05-31 03:01:00,48.0,34.0,-100.00,SSE,161,6.0,8.0,59,0.00,,,-99.99,0.000000,,2013-05-31 09:01:00,
2013-05-31 03:11:00,48.0,34.0,-100.00,SSE,153,6.0,8.0,59,0.00,,,-99.99,0.000000,,2013-05-31 09:11:00,
2013-05-31 03:21:00,48.0,34.0,-100.00,SSE,158,6.0,8.0,60,0.00,,,-99.99,0.000000,,2013-05-31 09:21:00,
2013-05-31 03:32:00,47.0,35.0,-100.00,SSE,157,6.0,8.0,62,0.00,,,-99.99,0.000000,,2013-05-31 09:32:00,
2013-05-31 03:43:00,48.0,34.0,-100.00,SSE,166,6.0,7.0,60,0.00,,,-99.99,0.000000,,2013-05-31 09:43:00,
2013-05-31 03:53:00,49.0,34.0,-100.00,SSW,196,5.0,8.0,57,0.00,,,-99.99,0.000000,,2013-05-31 09:53:00,
2013-05-31 04:02:00,46.0,35.0,-100.00,SSE,153,5.0,7.0,64,0.00,,,-99.99,0.000000,,2013-05-31 10:02:00,
2013-05-31 04:12:00,47.0,35.0,-100.00,SSE,156,5.0,7.0,62,0.00,,,-99.99,0.000000,,2013-05-31 10:12:00,
2013-05-31 04:22:00,46.0,36.0,-100.00,SSE,165,5.0,7.0,67,0.00,,,-99.99,0.000000,,2013-05-31 10:22:00,
2013-05-31 04:32:00,45.0,36.0,-100.00,South,170,5.0,7.0,71,0.00,,,-99.99,0.000000,,2013-05-31 10:32:00,
2013-05-31 04:42:00,45.0,36.0,-100.00,SSE,163,7.0,9.0,69,0.00,,,-99.99,0.000000,,2013-05-31 10:42:00,
2013-05-31 04:52:00,45.0,35.0,-100.00,SSE,162,7.0,9.0,68,0.00,,,-99.99,0.000000,,2013-05-31 10:52:00,
2013-05-31 05:01:00,44.0,35.0,-100.00,SSE,165,7.0,9.0,70,0.00,,,-99.99,0.000000,,2013-05-31 11:01:00,
2013-05-31 05:11:00,44.0,35.0,-100.00,SSE,163,6.0,8.0,71,0.00,,,-99.99,0.000000,,2013-05-31 11:11:00,
2013-05-31 05:22:00,44.0,35.0,-100.00,South,169,6.0,8.0,70,0.00,,,-99.99,0.000000,,2013-05-31 11:22:00,
2013-05-31 05:32:00,44.0,36.0,-100.00,SSE,168,7.0,9.0,72,0.00,,,-99.99,0.000000,,2013-05-31 11:32:00,
2013-05-31 05:41:00,44.0,35.0,-100.00,SSE,161,7.0,8.0,70,0.00,,,-99.99,0.000000,,2013-05-31 11:41:00,
2013-05-31 05:50:00,44.0,36.0,-100.00,SSE,155,7.0,9.0,73,0.00,,,-99.99,1.000000,,2013-05-31 11:50:00,
2013-05-31 05:52:00,43.0,35.0,-100.00,South,174,5.0,7.0,74,0.00,,,-99.99,0.000000,,2013-05-31 11:52:00,
2013-05-31 06:01:00,43.0,35.0,-100.00,SSE,165,6.0,8.0,73,0.00,,,-99.99,0.000000,,2013-05-31 12:01:00,
2013-05-31 06:11:00,44.0,36.0,-100.00,SSE,155,7.0,9.0,73,0.00,,,-99.99,1.000000,,2013-05-31 12:11:00,
2013-05-31 06:21:00,44.0,36.0,-100.00,SSE,155,7.0,9.0,73,0.00,,,-99.99,1.000000,,2013-05-31 12:21:00,
2013-05-31 06:31:00,44.0,36.0,-100.00,SSE,155,7.0,9.0,73,0.00,,,-99.99,1.000000,,2013-05-31 12:31:00,
2013-05-31 06:41:00,44.0,36.0,-100.00,SSE,155,7.0,9.0,73,0.00,,,-99.99,1.000000,,2013-05-31 12:41:00,
2013-05-31 07:21:00,48.0,38.0,-100.00,SSE,156,6.0,7.0,68,0.00,,,-99.99,128.000000,,2013-05-31 13:21:00,
2013-05-31 07:32:00,49.0,39.0,-100.00,SSE,152,5.0,7.0,66,0.00,,,-99.99,157.000000,,2013-05-31 13:32:00,
2013-05-31 07:42:00,50.0,39.0,-100.00,SSE,152,5.0,7.0,64,0.00,,,-99.99,186.000000,,2013-05-31 13:42:00,
2013-05-31 07:52:00,50.0,39.0,-100.00,SSE,152,5.0,7.0,64,0.00,,,-99.99,186.000000,,2013-05-31 13:52:00,
2013-05-31 08:02:00,55.0,38.0,-100.00,SE,127,2.0,5.0,52,0.00,,,-99.99,251.000000,,2013-05-31 14:02:00,
2013-05-31 08:11:00,57.0,40.0,-100.00,SSW,213,1.0,3.0,52,0.00,,,-99.99,284.000000,,2013-05-31 14:11:00,
2013-05-31 08:21:00,58.0,36.0,-100.00,South,182,1.0,4.0,44,0.00,,,-99.99,318.000000,,2013-05-31 14:21:00,
2013-05-31 08:31:00,58.0,36.0,-100.00,ESE,117,1.0,3.0,44,0.00,,,-99.99,352.000000,,2013-05-31 14:31:00,
2013-05-31 08:41:00,57.0,38.0,-100.00,NE,46,3.0,6.0,48,0.00,,,-99.99,385.000000,,2013-05-31 14:41:00,
2013-05-31 08:52:00,57.0,37.0,-100.00,SE,127,4.0,8.0,46,0.00,,,-99.99,418.000000,,2013-05-31 14:52:00,
2013-05-31 09:01:00,57.0,36.0,-100.00,SSW,192,4.0,6.0,46,0.00,,,-99.99,451.000000,,2013-05-31 15:01:00,
2013-05-31 09:11:00,58.0,38.0,-100.00,ESE,123,5.0,8.0,49,0.00,,,-99.99,486.000000,,2013-05-31 15:11:00,
2013-05-31 09:21:00,57.0,37.0,-100.00,South,184,6.0,8.0,46,0.00,,,-99.99,519.000000,,2013-05-31 15:21:00,
2013-05-31 09:33:00,57.0,34.0,-100.00,NW,309,7.0,11.0,42,0.00,,,-99.99,552.000000,,2013-05-31 15:33:00,
2013-05-31 09:42:00,57.0,34.0,-100.00,SW,228,6.0,11.0,41,0.00,,,-99.99,583.000000,,2013-05-31 15:42:00,
2013-05-31 09:53:00,57.0,33.0,-100.00,NW,308,7.0,12.0,39,0.00,,,-99.99,615.000000,,2013-05-31 15:53:00,
2013-05-31 10:03:00,58.0,34.0,-100.00,WSW,258,7.0,11.0,41,0.00,,,-99.99,646.000000,,2013-05-31 16:03:00,
2013-05-31 10:12:00,58.0,31.0,-100.00,WSW,239,8.0,11.0,36,0.00,,,-99.99,676.000000,,2013-05-31 16:12:00,
2013-05-31 10:22:00,58.0,33.0,-100.00,West,277,7.0,12.0,39,0.00,,,-99.99,704.000000,,2013-05-31 16:22:00,
2013-05-31 10:33:00,58.0,36.0,-100.00,SW,230,7.0,11.0,43,0.00,,,-99.99,733.000000,,2013-05-31 16:33:00,
2013-05-31 10:41:00,59.0,35.0,-100.00,SW,217,7.0,9.0,41,0.00,,,-99.99,758.000000,,2013-05-31 16:41:00,
2013-05-31 10:50:00,59.0,37.0,-100.00,ESE,112,5.0,9.0,43,0.00,,,-99.99,832.000000,,2013-05-31 16:50:00,
2013-05-31 10:52:00,59.0,34.0,-100.00,South,169,7.0,9.0,39,0.00,,,-99.99,780.000000,,2013-05-31 16:52:00,
2013-05-31 11:02:00,59.0,35.0,-100.00,SE,137,6.0,9.0,41,0.00,,,-99.99,810.000000,,2013-05-31 17:02:00,
2013-05-31 11:12:00,59.0,37.0,-100.00,ESE,112,5.0,9.0,43,0.00,,,-99.99,832.000000,,2013-05-31 17:12:00,
2013-05-31 11:22:00,59.0,37.0,-100.00,ESE,112,5.0,9.0,43,0.00,,,-99.99,832.000000,,2013-05-31 17:22:00,
2013-05-31 11:31:00,59.0,37.0,-100.00,ESE,112,5.0,9.0,43,0.00,,,-99.99,832.000000,,2013-05-31 17:31:00,
2013-05-31 11:42:00,59.0,37.0,-100.00,ESE,112,5.0,9.0,43,0.00,,,-99.99,832.000000,,2013-05-31 17:42:00,
2013-05-31 12:22:00,60.0,35.0,-100.00,West,264,5.0,10.0,39,0.00,,,-99.99,944.000000,,2013-05-31 18:22:00,
2013-05-31 12:32:00,61.0,39.0,-100.00,SW,233,6.0,9.0,44,0.00,,,-99.99,961.000000,,2013-05-31 18:32:00,
2013-05-31 12:42:00,61.0,35.0,-100.00,ESE,102,6.0,10.0,38,0.00,,,-99.99,968.000000,,2013-05-31 18:42:00,
2013-05-31 12:52:00,62.0,35.0,-100.00,SSW,197,6.0,10.0,37,0.00,,,-99.99,969.000000,,2013-05-31 18:52:00,
2013-05-31 13:01:00,61.0,33.0,-100.00,South,169,8.0,11.0,35,0.00,,,-99.99,983.000000,,2013-05-31 19:01:00,
2013-05-31 13:11:00,62.0,36.0,-100.00,WSW,253,8.0,12.0,38,0.00,,,-99.99,992.000000,,2013-05-31 19:11:00,
2013-05-31 13:21:00,63.0,36.0,-100.00,ESE,103,5.0,9.0,37,0.00,,,-99.99,992.000000,,2013-05-31 19:21:00,
2013-05-31 13:31:00,63.0,38.0,-100.00,SW,224,6.0,10.0,40,0.00,,,-99.99,1000.000000,,2013-05-31 19:31:00,
2013-05-31 13:41:00,62.0,34.0,-100.00,SE,136,7.0,11.0,35,0.00,,,-99.99,996.000000,,2013-05-31 19:41:00,
2013-05-31 13:52:00,63.0,36.0,-100.00,ESE,110,6.0,8.0,37,0.00,,,-99.99,997.000000,,2013-05-31 19:52:00,
2013-05-31 14:01:00,62.0,33.0,-100.00,South,169,7.0,12.0,33,0.00,,,-99.99,992.000000,,2013-05-31 20:01:00,
2013-05-31 14:11:00,63.0,35.0,-100.00,ESE,121,6.0,10.0,35,0.00,,,-99.99,984.000000,,2013-05-31 20:11:00,
2013-05-31 14:22:00,64.0,35.0,-100.00,SE,132,3.0,6.0,35,0.00,,,-99.99,982.000000,,2013-05-31 20:22:00,
2013-05-31 14:31:00,64.0,38.0,-100.00,South,179,6.0,8.0,37,0.00,,,-99.99,970.000000,,2013-05-31 20:31:00,
2013-05-31 14:41:00,63.0,30.0,-100.00,NW,312,5.0,10.0,28,0.00,,,-99.99,965.000000,,2013-05-31 20:41:00,
2013-05-31 14:51:00,64.0,33.0,-100.00,SSW,211,5.0,8.0,31,0.00,,,-99.99,950.000000,,2013-05-31 20:51:00,
2013-05-31 15:01:00,64.0,36.0,-100.00,SW,219,6.0,9.0,35,0.00,,,-99.99,942.000000,,2013-05-31 21:01:00,
2013-05-31 15:11:00,64.0,35.0,-100.00,South,177,7.0,9.0,34,0.00,,,-99.99,931.000000,,2013-05-31 21:11:00,
2013-05-31 15:22:00,65.0,35.0,-100.00,SW,215,7.0,9.0,33,0.00,,,-99.99,916.000000,,2013-05-31 21:22:00,
2013-05-31 15:32:00,65.0,35.0,-100.00,South,174,4.0,10.0,33,0.00,,,-99.99,898.000000,,2013-05-31 21:32:00,
2013-05-31 15:42:00,66.0,39.0,-100.00,WSW,248,6.0,11.0,37,0.00,,,-99.99,881.000000,,2013-05-31 21:42:00,
2013-05-31 15:50:00,66.0,36.0,-100.00,SSW,205,5.0,9.0,33,0.00,,,-99.99,818.000000,,2013-05-31 21:50:00,
2013-05-31 15:53:00,65.0,37.0,-100.00,SSE,161,6.0,9.0,36,0.00,,,-99.99,860.000000,,2013-05-31 21:53:00,
2013-05-31 16:02:00,65.0,33.0,-100.00,WSW,254,7.0,10.0,30,0.00,,,-99.99,840.000000,,2013-05-31 22:02:00,
2013-05-31 16:12:00,66.0,36.0,-100.00,SSW,205,5.0,9.0,33,0.00,,,-99.99,818.000000,,2013-05-31 22:12:00,
2013-05-31 16:22:00,66.0,36.0,-100.00,SSW,205,5.0,9.0,33,0.00,,,-99.99,818.000000,,2013-05-31 22:22:00,
2013-05-31 16:33:00,66.0,36.0,-100.00,SSW,205,5.0,9.0,33,0.00,,,-99.99,818.000000,,2013-05-31 22:33:00,
2013-05-31 16:41:00,66.0,36.0,-100.00,SSW,205,5.0,9.0,33,0.00,,,-99.99,818.000000,,2013-05-31 22:41:00,
2013-05-31 17:22:00,66.0,34.0,-100.00,SSE,167,5.0,8.0,30,0.00,,,-99.99,639.000000,,2013-05-31 23:22:00,
2013-05-31 17:32:00,67.0,32.0,-100.00,SW,233,6.0,9.0,28,0.00,,,-99.99,610.000000,,2013-05-31 23:32:00,
2013-05-31 17:42:00,66.0,34.0,-100.00,South,173,4.0,9.0,30,0.00,,,-99.99,580.000000,,2013-05-31 23:42:00,
2013-05-31 17:52:00,66.0,34.0,-100.00,South,173,4.0,9.0,30,0.00,,,-99.99,580.000000,,2013-05-31 23:52:00,
2013-05-31 18:01:00,66.0,31.0,-100.00,SSE,157,6.0,9.0,27,0.00,,,-99.99,519.000000,,2013-06-01 00:01:00,
2013-05-31 18:11:00,66.0,32.0,-100.00,WSW,242,5.0,8.0,28,0.00,,,-99.99,490.000000,,2013-06-01 00:11:00,
2013-05-31 18:21:00,66.0,32.0,-100.00,SSW,209,6.0,10.0,28,0.00,,,-99.99,460.000000,,2013-06-01 00:21:00,
2013-05-31 18:31:00,65.0,31.0,-100.00,NW,304,6.0,10.0,28,0.00,,,-99.99,429.000000,,2013-06-01 00:31:00,
2013-05-31 18:42:00,65.0,31.0,-100.00,NW,326,6.0,9.0,27,0.00,,,-99.99,398.000000,,2013-06-01 00:42:00,
2013-05-31 18:51:00,65.0,28.0,-100.00,NW,306,6.0,9.0,24,0.00,,,-99.99,366.000000,,2013-06-01 00:51:00,
2013-05-31 19:01:00,64.0,30.0,-100.00,West,269,7.0,10.0,28,0.00,,,-99.99,335.000000,,2013-06-01 01:01:00,
2013-05-31 19:11:00,64.0,27.0,-100.00,SW,234,7.0,10.0,25,0.00,,,-99.99,304.000000,,2013-06-01 01:11:00,
2013-05-31 19:21:00,63.0,30.0,-100.00,WSW,239,8.0,10.0,28,0.00,,,-99.99,273.000000,,2013-06-01 01:21:00,
2013-05-31 19:31:00,63.0,28.0,-100.00,WSW,257,7.0,12.0,27,0.00,,,-99.99,243.000000,,2013-06-01 01:31:00,
2013-05-31 19:42:00,63.0,29.0,-100.00,SW,222,7.0,11.0,28,0.00,,,-99.99,213.000000,,2013-06-01 01:42:00,
2013-05-31 19:52:00,62.0,27.0,-100.00,SSW,213,6.0,8.0,26,0.00,,,-99.99,184.000000,,2013-06-01 01:52:00,
2013-05-31 20:01:00,62.0,29.0,-100.00,SSE,147,4.0,6.0,28,0.00,,,-99.99,156.000000,,2013-06-01 02:01:00,
2013-05-31 20:11:00,61.0,35.0,-100.00,SE,126,1.0,4.0,37,0.00,,,-99.99,131.000000,,2013-06-01 02:11:00,
2013-05-31 20:21:00,60.0,30.0,-100.00,ESE,122,0.0,2.0,32,0.00,,,-99.99,105.000000,,2013-06-01 02:21:00,
2013-05-31 20:31:00,60.0,21.0,-100.00,SSE,157,4.0,7.0,22,0.00,,,-99.99,81.000000,,2013-06-01 02:31:00,
2013-05-31 20:42:00,58.0,31.0,-100.00,SSW,209,3.0,6.0,35,0.00,,,-99.99,59.000000,,2013-06-01 02:42:00,
2013-05-31 20:50:00,54.0,26.0,-100.00,SSE,150,6.0,9.0,34,0.00,,,-99.99,5.000000,,2013-06-01 02:50:00,
2013-05-31 20:51:00,55.0,29.0,-100.00,SSE,157,3.0,4.0,37,0.00,,,-99.99,28.000000,,2013-06-01 02:51:00,
2013-05-31 21:01:00,54.0,28.0,-100.00,SSE,160,4.0,7.0,37,0.00,,,-99.99,10.000000,,2013-06-01 03:01:00,
2013-05-31 21:11:00,54.0,26.0,-100.00,SSE,150,6.0,9.0,34,0.00,,,-99.99,5.000000,,2013-06-01 03:11:00,
2013-05-31 21:21:00,54.0,26.0,-100.00,SSE,150,6.0,9.0,34,0.00,,,-99.99,5.000000,,2013-06-01 03:21:00,
2013-05-31 21:33:00,54.0,26.0,-100.00,SSE,150,6.0,9.0,34,0.00,,,-99.99,5.000000,,2013-06-01 03:33:00,
2013-05-31 21:43:00,54.0,26.0,-100.00,SSE,150,6.0,9.0,34,0.00,,,-99.99,5.000000,,2013-06-01 03:43:00,
2013-05-31 22:23:00,51.0,26.0,-100.00,SSE,164,7.0,9.0,37,0.00,,,-99.99,0.000000,,2013-06-01 04:23:00,
2013-05-31 22:33:00,51.0,25.0,-100.00,SSE,158,7.0,9.0,36,0.00,,,-99.99,0.000000,,2013-06-01 04:33:00,
2013-05-31 22:42:00,51.0,25.0,-100.00,SSE,164,7.0,10.0,36,0.00,,,-99.99,0.000000,,2013-06-01 04:42:00,
2013-05-31 22:53:00,52.0,24.0,-100.00,SSE,158,8.0,11.0,34,0.00,,,-99.99,0.000000,,2013-06-01 04:53:00,
2013-05-31 23:02:00,52.0,23.0,-100.00,SSE,162,8.0,10.0,33,0.00,,,-99.99,0.000000,,2013-06-01 05:02:00,
2013-05-31 23:12:00,51.0,25.0,-100.00,SSE,158,8.0,10.0,35,0.00,,,-99.99,0.000000,,2013-06-01 05:12:00,
2013-05-31 23:22:00,51.0,25.0,-100.00,SSE,159,8.0,10.0,36,0.00,,,-99.99,0.000000,,2013-06-01 05:22:00,
2013-05-31 23:32:00,51.0,25.0,-100.00,SSE,157,7.0,9.0,36,0.00,,,-99.99,0.000000,,2013-06-01 05:32:00,
2013-05-31 23:42:00,51.0,24.0,-100.00,SSE,159,9.0,11.0,34,0.00,,,-99.99,0.000000,,2013-06-01 05:42:00,
2013-05-31 23:52:00,50.0,24.0,-100.00,SSE,156,8.0,11.0,35,0.00,,,-99.99,0.000000,,2013-06-01 05:52:00,